sat.trackr.live / text

‹ back to catalog

STARLINK-30785

NORAD 58191 · 2023-167S

PAYLOAD ACTIVE UNKNOWN

§ Identity

Operator
Country
US
Launch date
2023-10-30
Launch site
AFETR
Launch vehicle
Mass (kg)
RCS (m²)

Purposes: comms

External: N2YO · Heavens-Above · Gunter

§ Orbital elements

Epoch: 2026-09-20T08:18:05.398848Z

Period
94.27 min
Inclination
43.0070°
Eccentricity
0.0001110
Mean motion
15.27566022 rev/d
Perigee alt
482.3 km
Apogee alt
483.9 km
Semi-major
6,861.2 km
B*
8.4095e-6
RAAN
124.2138°
Arg perigee
254.5126°
Mean anomaly
105.5603°
Rev number
16,075

§ Raw data

STARLINK-307851 58191U 23167S   26263.34589582 -.00000031  00000+0  84095-5 0  99912 58191  43.0070 124.2138 0001110 254.5126 105.5603 15.27566022160754

JSON: /api/v1/satellites/58191 · /tle

For live sub-satellite position, see the globe view (requires WebGL).

§ Visibility from observer

Set your observer location to see the next 7 days of passes ≥ 10°. The values pass through the URL so the page stays shareable.

No JS? Fill the form by hand. The geolocation button needs JavaScript.